Regional Weather Roundup
Issued by NWS Mt. Holly, NJ

Home | Current Version | Previous Version | Text Only | Print | Product List | Glossary On
Versions: 1 2 3 4 5 6 7 8 9 10 11 12 13 14 15 16 17 18 19 20 21 22 23 24 25 26 27
000
ASUS41 KPHI 291012
RWRPHI

REGIONAL WEATHER ROUNDUP
NATIONAL WEATHER SERVICE MOUNT HOLLY NJ
600 AM EDT THU SEP 29 2016

NOTE:  "FAIR" INDICATES FEW OR NO CLOUDS BELOW 12,000 FEET WITH NO
SIGNIFICANT WEATHER AND/OR OBSTRUCTIONS TO VISIBILITY.

 * = STATION DOES NOT REPORT PRECIPITATION (E.G. RAIN, SNOW, ETC.)
        OR FOG.

NJZ015>026-291100-
SOUTHERN NEW JERSEY

CITY           SKY/WX    TMP DP  RH WIND       PRES   REMARKS
POMONA         LGT RAIN  65  62  90 E20G31    30.17S
WILDWOOD*      LGT RAIN  67  65  93 NE16G29   30.13S
MILLVILLE      LGT RAIN  65  65 100 E22G28    30.15R
MOUNT HOLLY    LGT RAIN  62  61  96 NE8       30.20S FOG
TRENTON        LGT RAIN  60  58  92 E10G20    30.25R

$$
NJZ001>014-291100-
NORTHERN NEW JERSEY

CITY           SKY/WX    TMP DP  RH WIND       PRES   REMARKS
SUSSEX         CLOUDY    55  52  89 NE8       30.31R
ANDOVER*         N/A     55  53  93 NE7       30.30R
MORRISTOWN     CLOUDY    57  54  88 NE5       30.31R
NEWARK         CLOUDY    62  55  77 NE12G22   30.29R
TETERBORO      CLOUDY    60  50  69 NE12      30.29R
CALDWELL       CLOUDY    58  52  80 NE7       30.31R
SOMERVILLE     CLOUDY    58  54  86 VRB7      30.25F
ALLAIRE*       LGT RAIN  62  60  93 E17G24    30.27R FOG
TOMS RIVER*    LGT RAIN  63  62  97 NE17G24   30.23S FOG

$$
PAZ043-044-047-054-055-060>062-066>071-291100-
EASTERN PENNSYLVANIA

CITY           SKY/WX    TMP DP  RH WIND       PRES   REMARKS
PHILADELPHIA   LGT RAIN  62  60  93 NE14G24   30.19S
NORTH PHILA    LGT RAIN  62  60  93 NE17      30.23S
BLUE BELL*     CLOUDY    55  55 100 NE9G20    30.21R
DOYLESTOWN     LGT RAIN  58  57  97 VRB6      30.23S
QUAKERTOWN*    CLOUDY    55  55 100 NE9G17    30.24S
PERKASIE*      LGT RAIN  55  55 100 NE14G21   30.24S
POTTSTOWN      LGT RAIN  57  56  96 NE9G18    30.24R
LANCASTER      RAIN      59  58  96 E15G26    30.15F
COATESVILLE    LGT RAIN  59  57  94 E14G31    30.20R
READING        RAIN      58  55  90 E13       30.20S
ALLENTOWN      LGT RAIN  57  54  89 NE15      30.24F
MOUNT POCONO   LGT RAIN  49  48  97 E15       30.29R
HAZLETON       LGT RAIN  52  52 100 E14G25    30.26S
LEHIGHTON      RAIN      54  54 100 E6        30.26S
WILKES BARRE   LGT RAIN  55  52  89 NE9       30.26R

$$
DEZALL-MDZ008-012-015-019-020-291100-
DELAWARE AND EASTERN MARYLAND

CITY           SKY/WX    TMP DP  RH WIND       PRES   REMARKS
WILMINGTON     RAIN      62  60  93 NE16      30.17R
GEORGETOWN     LGT RAIN  68  68 100 E14       30.13R
EASTON         CLOUDY    68  64  88 E12G18    30.13
PATUXENT       CLOUDY    68  65  90 E14       30.05S
OCEAN CITY     RAIN     N/A N/A N/A E25G33    30.08S
WALLOPS ISLAND CLOUDY    71  70  96 NE21G30   30.07S
CAMBRIDGE      CLOUDY    66  64  94 E10G16    30.08R
SALISBURY      LGT RAIN  69  68  96 E9        30.10R

$$
PAZ001-021-NYZ056-072-MDZ011-DCZ001-291100-
OTHER NEARBY LOCATIONS

CITY           SKY/WX    TMP DP  RH WIND       PRES   REMARKS
HARRISBURG     RAIN      59  58  96 E18       30.13R
STATE COLLEGE  RAIN      55  54  94 NE12G17   30.16F
WILLIAMSPORT   LGT RAIN  57  56  96 CALM      30.20F
BINGHAMTON     CLOUDY    51  49  92 E9        30.27R
NEW YORK CITY  CLOUDY    61  53  75 E9G20     30.32R
BALTIMORE      LGT RAIN  65  63  93 E18G28    30.10S
WASHINGTON DC  LGT RAIN  68  67  96 E23G33    30.05R

$$




USA.gov is the U.S. government's official web portal to all federal, state and local government web resources and services.